EHI
0 0 0 0 0 0 0 0 0 0 0 0 0 0 0 0 0 0 0 0 0 0 0 0 0 0 0 0 0 0 0 0 0 0 0 0 0 0
0 0 0 0 0 0 0 0 0 0 0 0 0 0 0 0 0 0 0 0 0 0 0 0 0 0 0 0 0 0 0 0 0 0 0 0 0 0
0 0 0 0 0 0 0 0 0 0 0 0 0 0 0 0 0 0 0 0 0 0 0 0 0 0 0 0 0 0 0 0 0 0 0 0 0 0
0 0 0 0 0 0 0 0 0 0 0 0 0 0 0 0 0 0 0 0 0 0 0 0 0 0 0 0 0 0 0 0 0 0 0 0 0 0
0 0 0 0 0 0 0 0 0 0 0 0 0 0 0 0 0 0 0 0 0 0 0 0 0 0 0 0 0 0 0 0 0 0 0 0 0 0
0 0 0 0 0 0 0 0 0 0 0 0 0 0 0 0 0 0 0 0 0 0 0 0 0 0 0 0 0 0 0 0 0 0 0 0 0 0
0 0 0 0 0 0 0 0 0 0 0 0 0 0 0 0 0 0 0 0 0 0 0 0 0 0 0 0 0 0 0 0 0 0 0 0 0 0
0 0 0 0 0 0 0 0 0 0 0 0 0 0 0 0 0 0 0 0 0 0 0 0 0 0 0 0 0 0 0 0 0 0 0 0 0 0
0 0 0 0 0 0 0 0 0 0 0 0 0 0 0 0 0 0 0 0 0 0 0 0 0 0 0 0 0 0 0 0 0 0 0 0 0 0
0 0 0 0 0 0 0 0 0 0 0 0 0 0 0 0 0 0 0 0 0 0 0 0 0 0 0 0 0 0 0 0 0 0 0 0 0 0
0 0 0 0 0 0 0 0 0 0 0 0 0 0 0 0 0 0 0 0 0 0 0 0 0 0 0 0 0 0 0 0 0 0 0 0 0 0
0 0 0 0 0 0 0 0 0 0 0 0 0 0 0 0 0 0 0 0 0 0 0 0 0 0 0 0 0 0 0 0 0 0 0 0 0 0
0 0 0 0 0 0 0 0 0 0 0 0 0 0 0 0 0 0 0 0 0 0 0 0 0 0 0 0 0 0 0 0 0 0 0 0 0 0
0 0 0 0 0 0 0 0 0 0 0 0 0 0 0 0 0 0 0 0 0 0 0 0 0 0 0 0 0 0 0 0 0 0 0 0 0 0
0 0 0 0 0 0 0 0 0 0 0 0 0 0 0 0 0 0 0 0 0 0 0 0 0 0 0 0 0 0 0 0 0 0 0 0 0 0
0 0 0 0 0 0 0 0 0 0 0 0 0 0 0 0 0 0 0 0 0 0 0 0 0 0 0 0 0 0 0 0 0 0 0 0 0 0
0 0 0 0 0 0 0 0 0 0 0 0 0 0 0 0 0 0 0 0 0 0 0 0 0 0 0 0 0 0 0 0 0 0 0 0 0 0
0 0 0 0 0 0 0 0 0 0 0 0 0 0 0 0 0 0 0 0 0 0 0 0 0 0 0 0 0 0 0 0 0 0 0 0 0 0
0 0 0 0 0 0 0 0 0 0 0 0 0 0 0 0 0 0 0 0 0 0 0 0 0 0 0 0 0 0 0 0 0 0 0 0 0 0
0 0 0 0 0 0 0 0 0 0 0 0 0 0 0 0 0 0 0 0 0 0 0 0 0 0 0 0 0 0 0 0 0 0 0 0 0 0
0 0 0 0 0 0 0 0 0 0 0 0 0 0 0 0 0 0 0 0 0 0 0 0 0 0 0 0 0 0 0 0 0 0 0 0 0 0
0 0 0 0 0 0 0 0 0 0 0 0 0 0 0 0 0 0 0 0 0 0 0 0 0 0 0 0 0 0 0 0 0 0 0 0 0 0
0 0 0 0 0 0 0 0 0 0 0 0 0 0 0 0 0 0 0 0 0 0 0 0 0 0 0 0 0 0 0 0 0 0 0 0 0 0
Wind_Speed
5 4 3 2 2 2 3 3 3 2 3 3 3 2 3 4 10 6 5 17 23 23 23 23 23 24 24 24 25 25 25 25 25 26 26 27 27 28
3 4 3 2 2 2 2 2 3 4 4 4 4 4 5 7 13 7 8 22 21 23 23 23 23 24 25 25 25 25 25 25 26 27 27 27 27 28
3 3 2 2 2 2 2 2 3 3 5 5 3 3 5 7 8 7 8 8 10 21 23 24 24 24 25 25 25 25 26 26 26 27 27 27 27 28
3 2 2 2 3 3 3 3 3 4 5 7 4 4 6 7 8 8 10 10 7 19 24 24 24 25 25 25 26 26 26 26 26 27 27 27 28 28
2 0 2 2 3 3 4 4 4 5 4 5 6 4 4 6 7 9 9 8 10 14 20 22 24 25 25 26 26 26 26 26 26 26 26 27 27 27
2 1 2 3 5 5 4 5 5 5 5 5 6 5 5 6 6 7 9 6 8 10 15 17 21 23 24 25 26 26 27 27 27 27 27 27 27 27
1 2 3 5 7 6 5 5 5 4 4 5 6 6 7 6 7 6 11 9 8 9 9 7 9 8 11 19 23 25 26 27 27 28 28 28 28 28
2 3 5 5 7 10 12 12 11 7 5 4 5 8 9 8 8 9 10 12 10 4 6 9 8 10 8 7 19 27 27 28 29 29 29 28 28 28
2 3 3 4 7 5 9 13 12 15 15 10 9 9 11 10 11 12 11 12 13 8 9 13 8 11 9 12 24 28 29 29 29 28 27 27 26 26
2 2 3 4 6 8 6 6 6 7 11 9 9 11 11 10 11 12 11 11 10 9 7 11 11 11 11 8 21 28 28 27 26 25 25 26 26 27
3 3 4 5 12 15 8 6 7 8 14 19 20 18 21 22 18 9 7 10 12 10 5 6 7 8 10 11 14 22 22 23 25 27 28 27 27 26
3 4 8 10 14 15 8 7 9 8 8 10 11 13 11 13 18 8 6 9 10 9 3 4 5 7 9 5 6 7 12 21 26 27 27 27 26 16
3 3 5 15 16 17 15 7 12 13 6 6 7 8 8 6 6 6 6 7 10 10 7 5 8 6 8 10 6 8 10 11 11 15 21 25 26 20
3 4 6 16 17 17 13 14 18 14 5 6 7 8 7 8 8 8 9 9 11 15 13 11 11 10 12 14 13 8 7 9 10 13 11 18 20 22
5 11 14 16 15 10 13 17 12 5 6 7 8 8 7 8 9 9 9 9 12 13 12 12 12 11 12 14 13 13 13 11 11 10 8 8 9 10
6 9 12 13 11 11 11 8 6 6 7 7 8 9 8 8 8 7 9 9 10 12 9 10 11 13 13 14 14 16 14 11 9 10 12 12 11 11
5 2 3 4 5 5 5 5 5 6 6 7 8 9 10 9 9 7 6 8 9 12 14 10 7 10 14 14 15 16 15 14 12 11 12 14 12 11
6 4 5 5 6 7 7 8 7 7 7 8 8 9 9 10 10 9 8 9 11 12 12 12 11 12 10 10 17 17 14 13 12 12 12 15 15 10
4 4 5 5 6 6 6 7 8 8 7 8 8 9 9 9 10 10 10 10 11 12 12 11 11 11 14 16 9 13 13 13 13 13 12 13 16 13
3 4 5 6 6 6 7 7 8 8 8 8 9 9 9 9 10 10 10 11 12 13 13 11 9 10 12 15 15 13 14 14 13 14 13 12 14 18
5 5 5 6 6 6 7 7 8 9 9 9 9 10 9 9 10 11 11 17 15 12 13 13 12 19 13 11 12 13 11 13 16 15 15 14 13 12
5 6 6 6 6 7 7 7 8 9 9 9 9 9 9 9 11 13 12 12 12 12 14 13 13 12 10 12 14 16 16 15 15 20 20 18 12 9
6 7 7 6 6 6 7 8 9 9 9 9 10 10 10 11 11 11 12 12 12 13 13 13 12 11 11 11 13 14 17 17 13 12 12 16 19 21
Wind_Direction
132 135 132 137 133 141 148 156 175 247 271 264 280 278 319 316 309 308 300 308 306 304 304 303 301 299 298 297 295 294 293 292 291 290 287 284 281 279
131 140 140 142 144 155 165 173 177 195 243 248 246 271 295 302 306 311 296 306 306 303 299 300 299 298 296 296 295 294 294 293 291 289 287 285 283 282
134 154 171 167 175 190 189 191 201 197 246 262 245 269 280 284 295 288 288 284 287 297 299 299 298 297 297 296 296 295 293 292 291 291 290 289 287 285
133 146 192 201 210 212 211 221 227 222 236 271 271 267 268 276 282 285 296 294 287 295 297 298 298 297 296 295 294 293 294 294 294 292 290 288 285 283
90 113 254 236 240 237 233 236 240 246 238 263 281 269 269 277 284 284 283 281 285 291 296 297 295 295 294 294 295 296 296 295 293 290 288 284 282 279
42 318 268 246 243 244 243 243 246 254 258 266 278 282 279 278 278 288 295 279 283 289 287 288 290 293 293 294 294 294 293 291 289 286 284 282 281 279
342 304 286 272 262 260 255 245 240 245 256 265 279 290 293 296 294 291 296 296 282 274 275 275 280 276 280 285 290 289 287 286 285 285 285 284 283 280
307 305 298 291 293 301 301 296 289 280 277 272 281 288 292 290 291 291 295 300 297 264 277 287 279 280 276 268 282 286 287 287 287 287 286 283 281 278
312 314 319 321 329 304 295 297 297 296 295 294 289 285 287 288 287 287 285 287 291 294 294 291 284 283 279 282 288 289 289 288 287 286 284 282 280 279
308 301 297 297 301 296 272 271 267 277 284 283 269 271 274 274 270 282 291 293 286 280 273 283 286 283 284 278 285 285 285 286 286 286 287 286 285 282
283 287 301 291 302 308 304 290 282 278 290 291 290 292 295 300 302 300 295 296 295 292 271 267 278 289 284 274 274 280 284 288 289 289 287 284 282 280
284 289 309 314 310 312 304 292 292 287 282 289 293 296 294 291 297 287 275 284 290 292 254 256 284 305 296 256 251 266 277 283 285 285 285 284 282 280
298 297 297 315 314 314 315 304 297 304 307 308 303 297 294 287 284 273 261 269 281 278 277 283 283 276 274 287 273 262 268 274 279 280 282 281 279 275
300 289 291 310 315 320 321 310 312 322 323 307 300 297 297 296 295 290 282 271 265 271 277 276 277 279 281 284 288 283 273 270 273 276 272 276 277 275
294 305 311 317 325 325 315 317 325 321 304 299 298 296 289 284 290 292 289 281 276 270 268 262 262 270 271 276 281 286 291 286 272 267 266 261 262 265
298 306 321 328 326 317 317 318 308 294 300 297 298 297 298 294 294 293 296 301 298 293 274 251 251 258 268 271 275 280 279 276 275 271 273 273 266 258
325 349 334 322 318 315 311 305 304 309 309 302 300 302 302 301 298 297 287 292 290 294 301 298 262 251 255 264 273 273 274 274 272 274 276 277 269 258
357 334 321 318 315 316 316 315 313 308 305 304 300 297 298 298 299 297 289 291 291 292 292 296 301 299 285 256 239 258 268 272 275 274 273 278 279 265
346 312 307 306 305 305 304 304 304 303 300 298 296 296 296 295 296 297 298 295 293 291 290 291 293 296 301 303 272 232 257 278 282 280 274 271 277 278
314 302 301 302 302 302 302 302 302 303 302 299 297 295 294 295 296 296 296 295 296 296 296 294 289 290 292 295 296 289 268 271 281 283 282 276 272 274
311 303 298 297 297 297 297 297 297 298 298 298 296 295 295 296 295 294 294 296 298 296 298 298 294 297 294 289 288 291 290 276 276 282 287 286 286 282
305 302 299 295 296 296 296 296 297 297 298 296 295 295 295 294 294 295 295 296 296 295 296 297 298 300 299 298 298 299 302 303 297 292 285 278 283 285
303 301 298 297 294 292 292 293 293 294 293 293 293 294 296 295 294 293 294 295 298 301 305 306 308 306 303 301 300 302 304 308 309 310 301 292 288 283